Wise, VA

1:16 AM EDT on March 27, 2017 (GMT -0400)
Lonesome Pine

Weather History for KLNP - July, 2013

Change the Weather History Date:

Tuesday, July 23, 2013

  Actual Average Record
Temperature  
Mean Temperature 75 °F -  
Max Temperature 82 °F 78 °F 89 °F (2010)
Min Temperature 68 °F 60 °F 55 °F (2003)
Cooling Degree Days 10    
Growing Degree Days 25 (Base 50)    
Moisture  
Dew Point 67 °F    
Average Humidity 85    
Maximum Humidity 100    
Minimum Humidity 54    
Precipitation  
Precipitation 0.00 in - - ()
Sea Level Pressure  
Sea Level Pressure 29.96 in    
Wind  
Wind Speed 6 mph (West)    
Max Wind Speed 12 mph    
Max Gust Speed 18 mph    
Visibility 8 miles    
Events Rain    
Averages and records for this station are not official NWS values.
T = Trace of Precipitation, MM = Missing Value Source: NWS Daily Summary

Daily Weather History Graph

Daily Weather History Graph

Search for Another Location

Airport or City:

Trip Planner

Search our weather history database for the weather conditions in past years. The results will help you decide how hot, cold, wet, or windy it might be!

Date:

Astronomy

Jul. 23, 2013 Rise Set
Actual Time 6:28 AM EDT 8:44 PM EDT
Civil Twilight 5:58 AM EDT 9:13 PM EDT
Nautical Twilight 5:22 AM EDT 9:49 PM EDT
Astronomical Twilight 4:43 AM EDT 10:29 PM EDT
Moon 9:15 PM EDT (7/23) 7:32 AM EDT (7/23)
Length of Visible Light 15h 14m
Length of Day
14h 16m
Full, 99% of the Moon is Illuminated
Jul 23
Full
Jul 29
Last Quarter
Aug 6
New
Aug 14
First Quarter
Aug 20
Full

Hourly Weather History & Observations

Time (EDT) Temp. Heat Index Dew Point Humidity Pressure Visibility Wind Dir Wind Speed Gust Speed Precip Events Conditions
12:15 AM 68.0 °F - 68.0 °F 100% 29.98 in 7.0 mi SW 5.8 mph - N/A   Overcast
12:35 AM 68.0 °F - 68.0 °F 100% 29.98 in 5.0 mi SW 5.8 mph - N/A   Overcast
12:55 AM 68.0 °F - 68.0 °F 100% 29.98 in 3.0 mi SW 5.8 mph - N/A   Drizzle
1:15 AM 68.0 °F - 68.0 °F 100% 29.98 in 4.0 mi SW 6.9 mph - N/A   Drizzle
1:35 AM 68.0 °F - 68.0 °F 100% 29.98 in 5.0 mi WSW 8.1 mph - N/A   Overcast
1:55 AM 68.0 °F - 68.0 °F 100% 29.97 in 5.0 mi SW 8.1 mph - N/A   Overcast
2:15 AM 68.0 °F - 68.0 °F 100% 29.97 in 4.0 mi WSW 5.8 mph - N/A   Overcast
2:35 AM 68.0 °F - 68.0 °F 100% 29.97 in 4.0 mi West 4.6 mph - N/A   Overcast
2:55 AM 68.0 °F - 68.0 °F 100% 29.97 in 7.0 mi WSW 5.8 mph - N/A   Overcast
3:15 AM 68.0 °F - 68.0 °F 100% 29.96 in 5.0 mi WSW 6.9 mph - N/A   Overcast
3:35 AM 68.0 °F - 68.0 °F 100% 29.96 in 5.0 mi WSW 6.9 mph - N/A   Overcast
3:55 AM 68.0 °F - 68.0 °F 100% 29.96 in 7.0 mi WSW 4.6 mph - N/A   Overcast
4:15 AM 68.0 °F - 68.0 °F 100% 29.96 in 5.0 mi WSW 4.6 mph - N/A   Overcast
4:35 AM 68.0 °F - 68.0 °F 100% 29.96 in 5.0 mi WSW 5.8 mph - N/A   Overcast
4:55 AM 68.0 °F - 68.0 °F 100% 29.96 in 4.0 mi WSW 5.8 mph - N/A Rain Light Rain
5:15 AM 68.0 °F - 68.0 °F 100% 29.96 in 5.0 mi WSW 6.9 mph - N/A   Overcast
5:35 AM 68.0 °F - 68.0 °F 100% 29.95 in 7.0 mi West 6.9 mph - N/A   Overcast
5:55 AM 68.0 °F - 68.0 °F 100% 29.96 in 7.0 mi West 6.9 mph - N/A   Overcast
6:15 AM 68.0 °F - 68.0 °F 100% 29.97 in 5.0 mi West 4.6 mph - N/A Rain Rain
6:35 AM 68.0 °F - 68.0 °F 100% 29.98 in 7.0 mi West 4.6 mph - N/A   Overcast
6:55 AM 68.0 °F - 68.0 °F 100% 29.98 in 10.0 mi West 6.9 mph - N/A   Overcast
7:15 AM 68.0 °F - 68.0 °F 100% 29.99 in 10.0 mi West 4.6 mph - N/A Rain Light Rain
7:35 AM 68.0 °F - 68.0 °F 100% 29.98 in 7.0 mi West 5.8 mph - N/A   Overcast
7:55 AM 68.0 °F - 68.0 °F 100% 29.98 in 7.0 mi WSW 4.6 mph - N/A   Overcast
8:15 AM 68.0 °F - 68.0 °F 100% 29.99 in 7.0 mi West 5.8 mph - N/A   Overcast
8:35 AM 68.0 °F - 68.0 °F 100% 29.99 in 7.0 mi West 4.6 mph - N/A   Overcast
8:55 AM 69.8 °F - 69.8 °F 100% 29.98 in 10.0 mi West 4.6 mph - N/A   Overcast
9:15 AM 69.8 °F - 69.8 °F 100% 29.98 in 10.0 mi West 4.6 mph - N/A   Overcast
9:35 AM 71.6 °F - 69.8 °F 94% 29.98 in 10.0 mi West 6.9 mph - N/A   Overcast
9:55 AM 71.6 °F - 69.8 °F 94% 29.98 in 10.0 mi WNW 9.2 mph - N/A   Mostly Cloudy
10:15 AM 71.6 °F - 69.8 °F 94% 29.98 in 10.0 mi WNW 9.2 mph - N/A   Mostly Cloudy
10:35 AM 71.6 °F - 69.8 °F 94% 29.98 in 10.0 mi WNW 6.9 mph - N/A   Mostly Cloudy
10:55 AM 73.4 °F - 69.8 °F 88% 29.99 in 10.0 mi WNW 9.2 mph - N/A   Scattered Clouds
11:15 AM 73.4 °F - 69.8 °F 88% 29.99 in 10.0 mi West 8.1 mph - N/A   Scattered Clouds
11:35 AM 75.2 °F - 69.8 °F 83% 29.99 in 10.0 mi NW 8.1 mph - N/A   Mostly Cloudy
11:55 AM 77.0 °F - 68.0 °F 74% 30.00 in 10.0 mi West 8.1 mph - N/A   Mostly Cloudy
12:15 PM 75.2 °F - 66.2 °F 73% 30.00 in 10.0 mi WSW 9.2 mph - N/A   Overcast
12:35 PM 77.0 °F - 66.2 °F 69% 30.00 in 10.0 mi West 11.5 mph 17.3 mph N/A   Mostly Cloudy
12:55 PM 78.8 °F - 64.4 °F 61% 30.00 in 10.0 mi West 9.2 mph - N/A   Scattered Clouds
1:15 PM 78.8 °F - 64.4 °F 61% 29.99 in 10.0 mi WSW 11.5 mph 18.4 mph N/A   Scattered Clouds
1:35 PM 78.8 °F - 64.4 °F 61% 29.98 in 10.0 mi West 9.2 mph - N/A   Mostly Cloudy
1:55 PM 80.6 °F 82.3 °F 64.4 °F 58% 29.98 in 10.0 mi West 10.4 mph 16.1 mph N/A   Mostly Cloudy
2:15 PM 80.6 °F 82.3 °F 64.4 °F 58% 29.97 in 10.0 mi NW 6.9 mph - N/A   Scattered Clouds
2:35 PM 78.8 °F - 64.4 °F 61% 29.97 in 10.0 mi West 5.8 mph 9.2 mph N/A   Scattered Clouds
2:55 PM 78.8 °F - 62.6 °F 57% 29.97 in 10.0 mi WNW 5.8 mph - N/A   Scattered Clouds
3:15 PM 80.6 °F 82.3 °F 64.4 °F 58% 29.95 in 10.0 mi West 6.9 mph - N/A   Scattered Clouds
3:35 PM 80.6 °F 82.3 °F 64.4 °F 58% 29.95 in 10.0 mi West 6.9 mph - N/A   Scattered Clouds
4:15 PM 78.8 °F - 62.6 °F 57% 29.95 in 10.0 mi West 4.6 mph - N/A   Scattered Clouds
4:35 PM 80.6 °F 81.8 °F 62.6 °F 54% 29.94 in 10.0 mi West 5.8 mph - N/A   Scattered Clouds
4:55 PM 82.4 °F 83.9 °F 64.4 °F 54% 29.93 in 10.0 mi WNW 6.9 mph - N/A   Scattered Clouds
5:15 PM 80.6 °F 81.8 °F 62.6 °F 54% 29.92 in 10.0 mi WNW 10.4 mph - N/A   Clear
5:35 PM 80.6 °F 82.3 °F 64.4 °F 58% 29.92 in 10.0 mi WNW 6.9 mph - N/A   Scattered Clouds
5:55 PM 80.6 °F 82.3 °F 64.4 °F 58% 29.92 in 10.0 mi West 5.8 mph - N/A   Scattered Clouds
6:15 PM 80.6 °F 82.3 °F 64.4 °F 58% 29.92 in 10.0 mi WNW 5.8 mph - N/A   Clear
6:35 PM 80.6 °F 82.3 °F 64.4 °F 58% 29.92 in 10.0 mi WNW 5.8 mph - N/A   Clear
6:55 PM 80.6 °F 82.7 °F 66.2 °F 61% 29.92 in 10.0 mi West 5.8 mph - N/A   Clear
7:15 PM 80.6 °F 82.7 °F 66.2 °F 61% 29.92 in 10.0 mi WNW 4.6 mph - N/A   Clear
7:35 PM 78.8 °F - 68.0 °F 69% 29.92 in 10.0 mi SW 6.9 mph - N/A   Clear
7:55 PM 77.0 °F - 69.8 °F 78% 29.92 in 10.0 mi WSW 5.8 mph - N/A   Scattered Clouds
8:15 PM 75.2 °F - 69.8 °F 83% 29.92 in 10.0 mi West 5.8 mph - N/A   Scattered Clouds
8:35 PM 73.4 °F - 69.8 °F 88% 29.93 in 10.0 mi West 3.5 mph - N/A   Scattered Clouds
8:55 PM 73.4 °F - 69.8 °F 88% 29.93 in 10.0 mi WSW 3.5 mph - N/A   Scattered Clouds
9:15 PM 71.6 °F - 71.6 °F 100% 29.93 in 10.0 mi SW 5.8 mph - N/A   Clear
9:35 PM 71.6 °F - 71.6 °F 100% 29.93 in 10.0 mi SW 4.6 mph - N/A   Clear
9:55 PM 69.8 °F - 69.8 °F 100% 29.94 in 7.0 mi SW 3.5 mph - N/A   Clear
10:15 PM 69.8 °F - 69.8 °F 100% 29.94 in 10.0 mi SW 5.8 mph - N/A   Clear
10:35 PM 69.8 °F - 69.8 °F 100% 29.94 in 10.0 mi SSW 5.8 mph - N/A   Clear
10:55 PM 69.8 °F - 69.8 °F 100% 29.96 in 7.0 mi West 3.5 mph - N/A   Clear
11:15 PM 68.0 °F - 68.0 °F 100% 29.96 in 7.0 mi SW 4.6 mph - N/A   Scattered Clouds
11:35 PM 69.8 °F - 69.8 °F 100% 29.96 in 7.0 mi SW 4.6 mph - N/A   Scattered Clouds
11:55 PM 68.0 °F - 68.0 °F 100% 29.96 in 5.0 mi SW 6.9 mph - N/A   Clear